DECAYED

TRANSIT 16 DEB, 33508 (Decayed)

Orbit data source: Space-Track

TRANSIT 16 DEB, 33508 was space debris in LEO originally from a launch on Thu, 18 May 1967 UTC launched from the Air Force Western Test Range (AFWTR). Debris objects in space refer to the collection of defunct objects orbiting the Earth. Examples of debris include non-operational satellites, rocket bodies, and fragments generated from explosions, collisions, or faulty payload assembly.

Not visible in the next 10 days
TRANSIT 16 DEB details
Identifier
33508, 1967-048G
Orbit
Decayed
Last TLE update4 months ago
Origin
Flag of USUSN NAVAIR (US)
ManufacturerUnknown
MissionDecayed spacecraft
Bus & MotorUnknown
MassUnknown
Launch date (UTC)
1967-05-18 (58 years ago)
Launch vehicleUnknown
Launch site
Air Force Western Test Range (AFWTR)
Object type
Payload
Rocket body
Debris
Shape & HBRUnknown
Radar Cross SectionSmall (<0.1 m²)

Expand to show TLE details & history

TLE from 4 months ago
0 TRANSIT 16 DEB
1 33508U 67048G   24235.79972159  .15470437  00000-0  14014+0 0  9999
2 33508  89.5126 340.6395 0043991 313.0328  46.7257 15.60671670828488
Epoch: 2024-08-22T19:11Z
Definitive object data (Epoch: 2024-08-22T19:11:35.945Z)
Latitude-0.00006°
Longitude81.15737°
Altitude368.637 km
Speed7.7 km/s
True Right ascension22h 42m 33s
True Declination0° 00' 00"
Sunlit
Object was in full shadow at TLE epoch
Visualization observer readout
Observer readout values are unavailable because the object's trajectory could not be propagated. This is usually caused when the trajectory data is faulty or the object's orbit has decayed.
Visualization observer readout
Observer readout values are unavailable because the object's trajectory could not be propagated. This is usually caused when the trajectory data is faulty or the object's orbit has decayed.
Orbital elements
Apogee altitude412.207 km
Perigee altitude352.725 km
Semi-major axis6,760.603 km
Eccentricity0.0043991
Inclination89.5126°
RAAN340.6395°
Arg. of periapsis313.0328°
True anomaly47.09411°
Mean anomaly46.7257°
Eccentric anomaly46.90977°
Mean motion3.9045 °/min
BSTAR0.14014
Orbital period92.2 mins
Loading maneuver chart data...
Loading historical data...
Loading historical data...
Loading historical data...
Loading historical data...
Loading historical data...
Loading historical data...
Loading historical data...

TRANSIT 16 DEB Visibility forecast

Observer location: undefined°, undefined

This satellite is decayed
Span
Click to sort rows by Start time (UTC) header in descending order
Start Az.
Max El. time (UTC)
Max El. Az.
Max El.
End time (UTC)
End Az.
|